Time,TemperatureF,DewpointF,PressureIn,WindDirection,WindDirectionDegrees,WindSpeedMPH,WindSpeedGustMPH,Humidity,HourlyPrecipIn,Conditions,Clouds,dailyrainin,SoftwareType,DateUTC
2013-07-23 00:01:00,83.3,69.0,28.53,SSE,157,6.0,6.0,62,0.00,,,0.00,Rainwise IP-100,2013-07-23 05:01:00,
2013-07-23 00:06:00,83.3,69.0,28.53,SSE,157,0.0,4.0,63,0.00,,,0.00,Rainwise IP-100,2013-07-23 05:06:00,
2013-07-23 00:11:00,83.2,69.0,28.53,SSE,157,4.0,4.0,63,0.00,,,0.00,Rainwise IP-100,2013-07-23 05:11:00,
2013-07-23 00:14:00,83.1,69.0,28.53,SSE,157,7.0,0.0,63,0.00,,,0.00,Rainwise IP-100,2013-07-23 05:14:00,
2013-07-23 00:16:00,83.1,69.0,28.53,SSE,157,5.0,0.0,64,0.00,,,0.00,Rainwise IP-100,2013-07-23 05:16:00,
2013-07-23 00:21:00,82.9,69.0,28.53,SSE,157,7.0,7.0,64,0.00,,,0.00,Rainwise IP-100,2013-07-23 05:21:00,
2013-07-23 00:26:00,82.8,69.0,28.53,SSE,157,6.0,6.0,64,0.00,,,0.00,Rainwise IP-100,2013-07-23 05:26:00,
2013-07-23 00:31:00,82.6,69.0,28.53,SE,135,8.0,8.0,65,0.00,,,0.00,Rainwise IP-100,2013-07-23 05:31:00,
2013-07-23 00:36:00,82.4,69.0,28.53,ESE,112,7.0,7.0,65,0.00,,,0.00,Rainwise IP-100,2013-07-23 05:36:00,
2013-07-23 00:41:00,82.3,69.0,28.54,SSE,157,6.0,6.0,66,0.00,,,0.00,Rainwise IP-100,2013-07-23 05:41:00,
2013-07-23 00:46:00,82.2,69.0,28.53,ESE,112,8.0,8.0,66,0.00,,,0.00,Rainwise IP-100,2013-07-23 05:46:00,
2013-07-23 00:51:00,82.0,70.0,28.54,SSE,157,2.0,9.0,67,0.00,,,0.00,Rainwise IP-100,2013-07-23 05:51:00,
2013-07-23 00:56:00,81.8,69.0,28.54,ESE,112,4.0,9.0,67,0.00,,,0.00,Rainwise IP-100,2013-07-23 05:56:00,
2013-07-23 01:01:00,81.6,70.0,28.54,SSE,157,6.0,6.0,68,0.00,,,0.00,Rainwise IP-100,2013-07-23 06:01:00,
2013-07-23 01:06:00,81.5,70.0,28.53,SE,135,3.0,0.0,69,0.00,,,0.00,Rainwise IP-100,2013-07-23 06:06:00,
2013-07-23 01:11:00,81.3,70.0,28.53,SSE,157,4.0,4.0,69,0.00,,,0.00,Rainwise IP-100,2013-07-23 06:11:00,
2013-07-23 01:16:00,81.2,71.0,28.54,SSE,157,5.0,5.0,70,0.00,,,0.00,Rainwise IP-100,2013-07-23 06:16:00,
2013-07-23 01:21:00,81.0,71.0,28.53,SSE,157,7.0,0.0,71,0.00,,,0.00,Rainwise IP-100,2013-07-23 06:21:00,
2013-07-23 01:26:00,80.9,71.0,28.53,ESE,112,7.0,7.0,71,0.00,,,0.00,Rainwise IP-100,2013-07-23 06:26:00,
2013-07-23 01:31:00,80.7,71.0,28.54,SSE,157,7.0,8.0,72,0.00,,,0.00,Rainwise IP-100,2013-07-23 06:31:00,
2013-07-23 01:36:00,80.6,71.0,28.54,SSE,157,6.0,0.0,72,0.00,,,0.00,Rainwise IP-100,2013-07-23 06:36:00,
2013-07-23 01:41:00,80.6,71.0,28.53,South,180,3.0,0.0,73,0.00,,,0.00,Rainwise IP-100,2013-07-23 06:41:00,
2013-07-23 01:46:00,80.5,71.0,28.53,SE,135,4.0,4.0,73,0.00,,,0.00,Rainwise IP-100,2013-07-23 06:46:00,
2013-07-23 01:51:00,80.3,71.0,28.54,South,180,4.0,0.0,74,0.00,,,0.00,Rainwise IP-100,2013-07-23 06:51:00,
2013-07-23 01:56:00,80.2,71.0,28.53,ESE,112,2.0,2.0,74,0.00,,,0.00,Rainwise IP-100,2013-07-23 06:56:00,
2013-07-23 02:01:00,80.1,71.0,28.53,South,180,6.0,8.0,75,0.00,,,0.00,Rainwise IP-100,2013-07-23 07:01:00,
2013-07-23 02:06:00,79.9,71.0,28.53,SSE,157,5.0,8.0,75,0.00,,,0.00,Rainwise IP-100,2013-07-23 07:06:00,
2013-07-23 02:11:00,79.8,71.0,28.53,SSE,157,4.0,9.0,76,0.00,,,0.00,Rainwise IP-100,2013-07-23 07:11:00,
2013-07-23 02:16:00,79.7,71.0,28.53,ESE,112,4.0,8.0,76,0.00,,,0.00,Rainwise IP-100,2013-07-23 07:16:00,
2013-07-23 02:21:00,79.7,72.0,28.53,SSE,157,3.0,7.0,77,0.00,,,0.00,Rainwise IP-100,2013-07-23 07:21:00,
2013-07-23 02:26:00,79.6,72.0,28.53,SSE,157,5.0,5.0,77,0.00,,,0.00,Rainwise IP-100,2013-07-23 07:26:00,
2013-07-23 02:31:00,79.4,72.0,28.53,SSW,202,6.0,8.0,78,0.00,,,0.00,Rainwise IP-100,2013-07-23 07:31:00,
2013-07-23 02:36:00,79.3,72.0,28.53,SSE,157,4.0,0.0,78,0.00,,,0.00,Rainwise IP-100,2013-07-23 07:36:00,
2013-07-23 02:41:00,79.2,72.0,28.53,SSE,157,4.0,8.0,78,0.00,,,0.00,Rainwise IP-100,2013-07-23 07:41:00,
2013-07-23 02:46:00,79.2,72.0,28.53,SSE,157,5.0,8.0,79,0.00,,,0.00,Rainwise IP-100,2013-07-23 07:46:00,
2013-07-23 02:51:00,79.1,72.0,28.54,SSE,157,5.0,7.0,79,0.00,,,0.00,Rainwise IP-100,2013-07-23 07:51:00,
2013-07-23 02:56:00,78.9,72.0,28.53,SSE,157,3.0,8.0,80,0.00,,,0.00,Rainwise IP-100,2013-07-23 07:56:00,
2013-07-23 03:01:00,78.9,72.0,28.53,SE,135,6.0,9.0,80,0.00,,,0.00,Rainwise IP-100,2013-07-23 08:01:00,
2013-07-23 03:06:00,78.8,72.0,28.53,SSE,157,7.0,7.0,80,0.00,,,0.00,Rainwise IP-100,2013-07-23 08:06:00,
2013-07-23 03:11:00,78.8,72.0,28.53,South,180,3.0,0.0,81,0.00,,,0.00,Rainwise IP-100,2013-07-23 08:11:00,
2013-07-23 03:16:00,78.8,72.0,28.54,SSE,157,7.0,9.0,81,0.00,,,0.00,Rainwise IP-100,2013-07-23 08:16:00,
2013-07-23 03:21:00,78.7,72.0,28.53,SSE,157,9.0,9.0,81,0.00,,,0.00,Rainwise IP-100,2013-07-23 08:21:00,
2013-07-23 03:26:00,78.6,72.0,28.53,South,180,6.0,6.0,82,0.00,,,0.00,Rainwise IP-100,2013-07-23 08:26:00,
2013-07-23 03:31:00,78.5,72.0,28.53,SSW,202,6.0,8.0,82,0.00,,,0.00,Rainwise IP-100,2013-07-23 08:31:00,
2013-07-23 03:36:00,78.4,72.0,28.53,SSE,157,6.0,9.0,82,0.00,,,0.00,Rainwise IP-100,2013-07-23 08:36:00,
2013-07-23 03:41:00,78.3,72.0,28.53,SSE,157,4.0,9.0,83,0.00,,,0.00,Rainwise IP-100,2013-07-23 08:41:00,
2013-07-23 03:46:00,78.2,72.0,28.54,SSE,157,3.0,7.0,83,0.00,,,0.00,Rainwise IP-100,2013-07-23 08:46:00,
2013-07-23 03:51:00,78.1,72.0,28.53,SSE,157,4.0,8.0,83,0.00,,,0.00,Rainwise IP-100,2013-07-23 08:51:00,
2013-07-23 03:56:00,78.0,72.0,28.54,SSE,157,7.0,9.0,83,0.00,,,0.00,Rainwise IP-100,2013-07-23 08:56:00,
2013-07-23 04:01:00,78.0,72.0,28.54,South,180,4.0,8.0,84,0.00,,,0.00,Rainwise IP-100,2013-07-23 09:01:00,
2013-07-23 04:06:00,78.0,72.0,28.54,SE,135,6.0,7.0,84,0.00,,,0.00,Rainwise IP-100,2013-07-23 09:06:00,
2013-07-23 04:11:00,77.9,72.0,28.54,SSE,157,4.0,7.0,84,0.00,,,0.00,Rainwise IP-100,2013-07-23 09:11:00,
2013-07-23 04:16:00,77.9,72.0,28.54,SSE,157,5.0,8.0,84,0.00,,,0.00,Rainwise IP-100,2013-07-23 09:16:00,
2013-07-23 04:21:00,77.9,72.0,28.54,SE,135,5.0,7.0,84,0.00,,,0.00,Rainwise IP-100,2013-07-23 09:21:00,
2013-07-23 04:26:00,77.9,72.0,28.55,SSE,157,5.0,9.0,84,0.00,,,0.00,Rainwise IP-100,2013-07-23 09:26:00,
2013-07-23 04:31:00,77.8,73.0,28.55,SSE,157,5.0,7.0,85,0.00,,,0.00,Rainwise IP-100,2013-07-23 09:31:00,
2013-07-23 04:36:00,77.7,73.0,28.55,SSE,157,5.0,6.0,85,0.00,,,0.00,Rainwise IP-100,2013-07-23 09:36:00,
2013-07-23 04:41:00,77.6,73.0,28.54,South,180,4.0,7.0,85,0.00,,,0.00,Rainwise IP-100,2013-07-23 09:41:00,
2013-07-23 04:46:00,77.6,73.0,28.55,SSE,157,4.0,6.0,85,0.00,,,0.00,Rainwise IP-100,2013-07-23 09:46:00,
2013-07-23 04:51:00,77.6,73.0,28.55,SE,135,3.0,7.0,85,0.00,,,0.00,Rainwise IP-100,2013-07-23 09:51:00,
2013-07-23 04:56:00,77.7,73.0,28.55,ESE,112,3.0,6.0,85,0.00,,,0.00,Rainwise IP-100,2013-07-23 09:56:00,
2013-07-23 05:01:00,77.7,73.0,28.54,South,180,4.0,6.0,85,0.00,,,0.00,Rainwise IP-100,2013-07-23 10:01:00,
2013-07-23 05:06:00,77.6,73.0,28.54,SSW,202,6.0,7.0,85,0.00,,,0.00,Rainwise IP-100,2013-07-23 10:06:00,
2013-07-23 05:11:00,77.5,73.0,28.54,ESE,112,2.0,8.0,86,0.00,,,0.00,Rainwise IP-100,2013-07-23 10:11:00,
2013-07-23 05:16:00,77.5,73.0,28.54,South,180,4.0,7.0,86,0.00,,,0.00,Rainwise IP-100,2013-07-23 10:16:00,
2013-07-23 05:21:00,77.5,73.0,28.54,SSE,157,5.0,6.0,86,0.00,,,0.00,Rainwise IP-100,2013-07-23 10:21:00,
2013-07-23 05:26:00,77.6,73.0,28.54,ESE,112,5.0,8.0,86,0.00,,,0.00,Rainwise IP-100,2013-07-23 10:26:00,
2013-07-23 05:31:00,77.7,73.0,28.54,SSE,157,3.0,8.0,86,0.00,,,0.00,Rainwise IP-100,2013-07-23 10:31:00,
2013-07-23 05:36:00,77.7,73.0,28.54,SE,135,5.0,7.0,86,0.00,,,0.00,Rainwise IP-100,2013-07-23 10:36:00,
2013-07-23 05:41:00,77.7,73.0,28.54,SSE,157,4.0,8.0,86,0.00,,,0.00,Rainwise IP-100,2013-07-23 10:41:00,
2013-07-23 05:46:00,77.6,73.0,28.55,South,180,3.0,6.0,86,0.00,,,0.00,Rainwise IP-100,2013-07-23 10:46:00,
2013-07-23 05:51:00,77.7,73.0,28.54,South,180,4.0,6.0,86,0.00,,,0.00,Rainwise IP-100,2013-07-23 10:51:00,
2013-07-23 05:56:00,77.7,73.0,28.55,SSE,157,2.0,6.0,86,0.00,,,0.00,Rainwise IP-100,2013-07-23 10:56:00,
2013-07-23 06:01:00,77.7,73.0,28.55,SSE,157,2.0,9.0,86,0.00,,,0.00,Rainwise IP-100,2013-07-23 11:01:00,
2013-07-23 06:06:00,77.7,73.0,28.54,SSE,157,3.0,9.0,86,0.00,,,0.00,Rainwise IP-100,2013-07-23 11:06:00,
2013-07-23 06:11:00,77.8,73.0,28.55,ESE,112,3.0,6.0,86,0.00,,,0.00,Rainwise IP-100,2013-07-23 11:11:00,
2013-07-23 06:16:00,77.8,73.0,28.55,SE,135,7.0,7.0,86,0.00,,,0.00,Rainwise IP-100,2013-07-23 11:16:00,
2013-07-23 06:21:00,77.7,73.0,28.55,SSE,157,5.0,8.0,86,0.00,,,0.00,Rainwise IP-100,2013-07-23 11:21:00,
2013-07-23 06:26:00,77.8,73.0,28.55,South,180,5.0,7.0,86,0.00,,,0.00,Rainwise IP-100,2013-07-23 11:26:00,
2013-07-23 06:31:00,77.8,73.0,28.55,South,180,5.0,9.0,86,0.00,,,0.00,Rainwise IP-100,2013-07-23 11:31:00,
2013-07-23 06:36:00,77.7,73.0,28.55,SE,135,6.0,8.0,86,0.00,,,0.00,Rainwise IP-100,2013-07-23 11:36:00,
2013-07-23 06:41:00,77.8,73.0,28.55,South,180,4.0,8.0,86,0.00,,,0.00,Rainwise IP-100,2013-07-23 11:41:00,
2013-07-23 06:46:00,77.9,73.0,28.55,SE,135,9.0,9.0,86,0.00,,,0.00,Rainwise IP-100,2013-07-23 11:46:00,
2013-07-23 06:51:00,77.9,73.0,28.55,SSE,157,6.0,0.0,85,0.00,,,0.00,Rainwise IP-100,2013-07-23 11:51:00,
2013-07-23 06:56:00,77.9,73.0,28.55,SSE,157,4.0,0.0,85,0.00,,,0.00,Rainwise IP-100,2013-07-23 11:56:00,
2013-07-23 07:01:00,77.9,73.0,28.55,SSW,202,5.0,8.0,85,0.00,,,0.00,Rainwise IP-100,2013-07-23 12:01:00,
2013-07-23 07:06:00,77.9,73.0,28.55,SSE,157,7.0,9.0,85,0.00,,,0.00,Rainwise IP-100,2013-07-23 12:06:00,
2013-07-23 07:11:00,77.9,73.0,28.55,SSE,157,7.0,8.0,85,0.00,,,0.00,Rainwise IP-100,2013-07-23 12:11:00,
2013-07-23 07:16:00,77.8,73.0,28.55,SE,135,3.0,9.0,85,0.00,,,0.00,Rainwise IP-100,2013-07-23 12:16:00,
2013-07-23 07:21:00,77.8,73.0,28.55,SSE,157,6.0,8.0,85,0.00,,,0.00,Rainwise IP-100,2013-07-23 12:21:00,
2013-07-23 07:26:00,77.8,73.0,28.56,South,180,6.0,7.0,85,0.00,,,0.00,Rainwise IP-100,2013-07-23 12:26:00,
2013-07-23 07:31:00,77.9,73.0,28.55,SSE,157,4.0,8.0,85,0.00,,,0.00,Rainwise IP-100,2013-07-23 12:31:00,
2013-07-23 07:36:00,77.9,72.0,28.56,South,180,5.0,9.0,84,0.00,,,0.00,Rainwise IP-100,2013-07-23 12:36:00,
2013-07-23 07:41:00,78.0,72.0,28.55,SSE,157,6.0,9.0,84,0.00,,,0.00,Rainwise IP-100,2013-07-23 12:41:00,
2013-07-23 07:46:00,78.0,72.0,28.56,South,180,4.0,8.0,84,0.00,,,0.00,Rainwise IP-100,2013-07-23 12:46:00,
2013-07-23 07:51:00,78.1,72.0,28.56,South,180,4.0,9.0,84,0.00,,,0.00,Rainwise IP-100,2013-07-23 12:51:00,
2013-07-23 07:56:00,78.2,73.0,28.56,SSW,202,6.0,8.0,84,0.00,,,0.00,Rainwise IP-100,2013-07-23 12:56:00,
2013-07-23 08:01:00,78.2,73.0,28.55,SSE,157,4.0,7.0,84,0.00,,,0.00,Rainwise IP-100,2013-07-23 13:01:00,
2013-07-23 08:06:00,78.3,72.0,28.56,SSE,157,3.0,8.0,83,0.00,,,0.00,Rainwise IP-100,2013-07-23 13:06:00,
2013-07-23 08:11:00,78.4,72.0,28.56,SSE,157,6.0,7.0,83,0.00,,,0.00,Rainwise IP-100,2013-07-23 13:11:00,
2013-07-23 08:16:00,78.5,73.0,28.56,ESE,112,4.0,8.0,83,0.00,,,0.00,Rainwise IP-100,2013-07-23 13:16:00,
2013-07-23 08:21:00,78.7,73.0,28.55,SSE,157,4.0,9.0,83,0.00,,,0.00,Rainwise IP-100,2013-07-23 13:21:00,
2013-07-23 08:26:00,78.8,72.0,28.56,South,180,3.0,7.0,82,0.00,,,0.00,Rainwise IP-100,2013-07-23 13:26:00,
2013-07-23 08:31:00,78.8,72.0,28.56,ESE,112,2.0,7.0,82,0.00,,,0.00,Rainwise IP-100,2013-07-23 13:31:00,
2013-07-23 08:36:00,78.8,72.0,28.56,SSE,157,7.0,7.0,82,0.00,,,0.00,Rainwise IP-100,2013-07-23 13:36:00,
2013-07-23 08:41:00,78.8,72.0,28.56,East,90,5.0,8.0,82,0.00,,,0.00,Rainwise IP-100,2013-07-23 13:41:00,
2013-07-23 08:46:00,78.9,73.0,28.56,SSE,157,2.0,8.0,82,0.00,,,0.00,Rainwise IP-100,2013-07-23 13:46:00,
2013-07-23 08:51:00,79.0,73.0,28.56,SSE,157,6.0,7.0,82,0.00,,,0.00,Rainwise IP-100,2013-07-23 13:51:00,
2013-07-23 08:56:00,79.3,73.0,28.56,SE,135,5.0,7.0,81,0.00,,,0.00,Rainwise IP-100,2013-07-23 13:56:00,
2013-07-23 09:01:00,79.6,73.0,28.56,SSE,157,3.0,7.0,81,0.00,,,0.00,Rainwise IP-100,2013-07-23 14:01:00,
2013-07-23 09:06:00,79.8,73.0,28.57,SSW,202,4.0,9.0,80,0.00,,,0.00,Rainwise IP-100,2013-07-23 14:06:00,
2013-07-23 09:11:00,79.9,73.0,28.57,South,180,6.0,9.0,80,0.00,,,0.00,Rainwise IP-100,2013-07-23 14:11:00,
2013-07-23 09:16:00,80.2,73.0,28.56,South,180,8.0,9.0,79,0.00,,,0.00,Rainwise IP-100,2013-07-23 14:16:00,
2013-07-23 09:21:00,80.5,73.0,28.57,SE,135,5.0,9.0,79,0.00,,,0.00,Rainwise IP-100,2013-07-23 14:21:00,
2013-07-23 09:26:00,80.7,73.0,28.57,ESE,112,0.0,2.0,78,0.00,,,0.00,Rainwise IP-100,2013-07-23 14:26:00,
2013-07-23 09:31:00,80.9,73.0,28.57,SSE,157,5.0,5.0,78,0.00,,,0.00,Rainwise IP-100,2013-07-23 14:31:00,
2013-07-23 09:36:00,81.0,73.0,28.57,SE,135,8.0,8.0,77,0.00,,,0.00,Rainwise IP-100,2013-07-23 14:36:00,
2013-07-23 09:41:00,81.2,73.0,28.57,SE,135,7.0,7.0,77,0.00,,,0.00,Rainwise IP-100,2013-07-23 14:41:00,
2013-07-23 09:46:00,81.2,73.0,28.57,SSE,157,6.0,6.0,77,0.00,,,0.00,Rainwise IP-100,2013-07-23 14:46:00,
2013-07-23 09:51:00,81.2,73.0,28.56,SE,135,3.0,0.0,77,0.00,,,0.00,Rainwise IP-100,2013-07-23 14:51:00,
2013-07-23 09:56:00,81.4,73.0,28.56,SSW,202,3.0,8.0,77,0.00,,,0.00,Rainwise IP-100,2013-07-23 14:56:00,
2013-07-23 10:01:00,81.7,73.0,28.56,SW,225,6.0,6.0,76,0.00,,,0.00,Rainwise IP-100,2013-07-23 15:01:00,
2013-07-23 10:06:00,82.1,73.0,28.56,SSW,202,4.0,4.0,76,0.00,,,0.00,Rainwise IP-100,2013-07-23 15:06:00,
2013-07-23 10:11:00,82.6,73.0,28.56,South,180,8.0,0.0,75,0.00,,,0.00,Rainwise IP-100,2013-07-23 15:11:00,
2013-07-23 10:16:00,82.9,73.0,28.57,SE,135,4.0,4.0,74,0.00,,,0.00,Rainwise IP-100,2013-07-23 15:16:00,
2013-07-23 10:21:00,83.2,73.0,28.56,SSE,157,3.0,0.0,73,0.00,,,0.00,Rainwise IP-100,2013-07-23 15:21:00,
2013-07-23 10:26:00,83.4,74.0,28.56,ESE,112,7.0,0.0,73,0.00,,,0.00,Rainwise IP-100,2013-07-23 15:26:00,
2013-07-23 10:31:00,83.3,73.0,28.56,South,180,6.0,6.0,73,0.00,,,0.00,Rainwise IP-100,2013-07-23 15:31:00,
2013-07-23 10:36:00,83.5,73.0,28.57,SW,225,6.0,6.0,72,0.00,,,0.00,Rainwise IP-100,2013-07-23 15:36:00,
2013-07-23 10:41:00,83.9,73.0,28.56,South,180,7.0,0.0,71,0.00,,,0.00,Rainwise IP-100,2013-07-23 15:41:00,
2013-07-23 10:46:00,84.4,73.0,28.57,SSE,157,8.0,9.0,70,0.00,,,0.00,Rainwise IP-100,2013-07-23 15:46:00,
2013-07-23 10:51:00,84.5,73.0,28.56,SSW,202,5.0,5.0,69,0.00,,,0.00,Rainwise IP-100,2013-07-23 15:51:00,
2013-07-23 10:56:00,84.4,73.0,28.56,South,180,6.0,6.0,69,0.00,,,0.00,Rainwise IP-100,2013-07-23 15:56:00,
2013-07-23 11:01:00,84.3,73.0,28.56,SSE,157,0.0,3.0,69,0.00,,,0.00,Rainwise IP-100,2013-07-23 16:01:00,
2013-07-23 11:06:00,84.3,73.0,28.56,SSW,202,3.0,3.0,69,0.00,,,0.00,Rainwise IP-100,2013-07-23 16:06:00,
2013-07-23 11:11:00,84.4,73.0,28.56,South,180,0.0,3.0,69,0.00,,,0.00,Rainwise IP-100,2013-07-23 16:11:00,
2013-07-23 11:16:00,84.9,73.0,28.56,SE,135,7.0,7.0,68,0.00,,,0.00,Rainwise IP-100,2013-07-23 16:16:00,
2013-07-23 11:21:00,85.6,73.0,28.57,SSW,202,7.0,7.0,68,0.00,,,0.00,Rainwise IP-100,2013-07-23 16:21:00,
2013-07-23 11:26:00,85.7,73.0,28.56,SE,135,5.0,5.0,67,0.00,,,0.00,Rainwise IP-100,2013-07-23 16:26:00,
2013-07-23 11:31:00,85.6,73.0,28.56,South,180,6.0,6.0,67,0.00,,,0.00,Rainwise IP-100,2013-07-23 16:31:00,
2013-07-23 11:36:00,86.0,73.0,28.56,SSE,157,4.0,4.0,66,0.00,,,0.00,Rainwise IP-100,2013-07-23 16:36:00,
2013-07-23 11:41:00,86.2,73.0,28.56,SSW,202,7.0,9.0,66,0.00,,,0.00,Rainwise IP-100,2013-07-23 16:41:00,
2013-07-23 11:46:00,86.1,73.0,28.56,SSW,202,5.0,5.0,66,0.00,,,0.00,Rainwise IP-100,2013-07-23 16:46:00,
2013-07-23 11:51:00,86.0,73.0,28.56,SSW,202,4.0,4.0,66,0.00,,,0.00,Rainwise IP-100,2013-07-23 16:51:00,
2013-07-23 11:56:00,86.3,73.0,28.57,South,180,6.0,6.0,65,0.00,,,0.00,Rainwise IP-100,2013-07-23 16:56:00,
2013-07-23 12:01:00,86.8,73.0,28.57,SSE,157,8.0,8.0,64,0.00,,,0.00,Rainwise IP-100,2013-07-23 17:01:00,
2013-07-23 12:06:00,87.1,73.0,28.56,SSE,157,7.0,7.0,64,0.00,,,0.00,Rainwise IP-100,2013-07-23 17:06:00,
2013-07-23 12:11:00,87.4,73.0,28.56,SSE,157,5.0,5.0,64,0.00,,,0.00,Rainwise IP-100,2013-07-23 17:11:00,
2013-07-23 12:16:00,87.3,73.0,28.56,SSE,157,9.0,9.0,63,0.00,,,0.00,Rainwise IP-100,2013-07-23 17:16:00,
2013-07-23 12:21:00,87.3,73.0,28.56,SSW,202,3.0,4.0,63,0.00,,,0.00,Rainwise IP-100,2013-07-23 17:21:00,
2013-07-23 12:26:00,87.7,73.0,28.56,SSE,157,6.0,6.0,62,0.00,,,0.00,Rainwise IP-100,2013-07-23 17:26:00,
2013-07-23 12:31:00,87.8,73.0,28.56,SSE,157,3.0,3.0,62,0.00,,,0.00,Rainwise IP-100,2013-07-23 17:31:00,
2013-07-23 12:36:00,88.1,73.0,28.56,SSE,157,3.0,7.0,62,0.00,,,0.00,Rainwise IP-100,2013-07-23 17:36:00,
2013-07-23 12:41:00,88.4,73.0,28.56,SW,225,4.0,4.0,61,0.00,,,0.00,Rainwise IP-100,2013-07-23 17:41:00,
2013-07-23 12:46:00,88.3,72.0,28.56,SSW,202,3.0,3.0,60,0.00,,,0.00,Rainwise IP-100,2013-07-23 17:46:00,
2013-07-23 12:51:00,88.6,73.0,28.56,SSE,157,0.0,2.0,60,0.00,,,0.00,Rainwise IP-100,2013-07-23 17:51:00,
2013-07-23 12:56:00,88.8,73.0,28.56,SSW,202,3.0,3.0,60,0.00,,,0.00,Rainwise IP-100,2013-07-23 17:56:00,
2013-07-23 13:01:00,89.0,73.0,28.56,WSW,247,4.0,9.0,60,0.00,,,0.00,Rainwise IP-100,2013-07-23 18:01:00,
2013-07-23 13:06:00,89.4,73.0,28.56,SSW,202,4.0,4.0,59,0.00,,,0.00,Rainwise IP-100,2013-07-23 18:06:00,
2013-07-23 13:11:00,89.5,72.0,28.55,SSW,202,4.0,0.0,58,0.00,,,0.00,Rainwise IP-100,2013-07-23 18:11:00,
2013-07-23 13:16:00,89.8,73.0,28.56,SSW,202,8.0,8.0,58,0.00,,,0.00,Rainwise IP-100,2013-07-23 18:16:00,
2013-07-23 13:21:00,89.6,72.0,28.56,SSW,202,4.0,4.0,58,0.00,,,0.00,Rainwise IP-100,2013-07-23 18:21:00,
2013-07-23 13:26:00,89.4,72.0,28.55,SSW,202,7.0,7.0,58,0.00,,,0.00,Rainwise IP-100,2013-07-23 18:26:00,
2013-07-23 13:31:00,89.3,72.0,28.56,SE,135,6.0,6.0,58,0.00,,,0.00,Rainwise IP-100,2013-07-23 18:31:00,
2013-07-23 13:36:00,89.4,72.0,28.54,South,180,6.0,6.0,58,0.00,,,0.00,Rainwise IP-100,2013-07-23 18:36:00,
2013-07-23 13:41:00,89.7,73.0,28.54,South,180,5.0,5.0,58,0.00,,,0.00,Rainwise IP-100,2013-07-23 18:41:00,
2013-07-23 13:46:00,90.0,72.0,28.55,SSE,157,8.0,8.0,57,0.00,,,0.00,Rainwise IP-100,2013-07-23 18:46:00,
2013-07-23 13:51:00,90.1,72.0,28.54,SSW,202,6.0,6.0,56,0.00,,,0.00,Rainwise IP-100,2013-07-23 18:51:00,
2013-07-23 13:56:00,90.4,72.0,28.54,SSW,202,5.0,0.0,56,0.00,,,0.00,Rainwise IP-100,2013-07-23 18:56:00,
2013-07-23 14:01:00,90.5,72.0,28.54,SW,225,4.0,0.0,56,0.00,,,0.00,Rainwise IP-100,2013-07-23 19:01:00,
2013-07-23 14:06:00,90.4,72.0,28.54,SE,135,4.0,4.0,56,0.00,,,0.00,Rainwise IP-100,2013-07-23 19:06:00,
2013-07-23 14:11:00,90.3,72.0,28.54,SSE,157,3.0,3.0,56,0.00,,,0.00,Rainwise IP-100,2013-07-23 19:11:00,
2013-07-23 14:16:00,90.3,72.0,28.53,ESE,112,8.0,8.0,56,0.00,,,0.00,Rainwise IP-100,2013-07-23 19:16:00,
2013-07-23 14:21:00,90.2,72.0,28.54,SSE,157,6.0,0.0,56,0.00,,,0.00,Rainwise IP-100,2013-07-23 19:21:00,
2013-07-23 14:26:00,90.5,72.0,28.53,South,180,9.0,0.0,56,0.00,,,0.00,Rainwise IP-100,2013-07-23 19:26:00,
2013-07-23 14:31:00,91.1,72.0,28.53,SW,225,4.0,9.0,55,0.00,,,0.00,Rainwise IP-100,2013-07-23 19:31:00,
2013-07-23 14:36:00,91.6,72.0,28.53,South,180,0.0,2.0,53,0.00,,,0.00,Rainwise IP-100,2013-07-23 19:36:00,
2013-07-23 14:41:00,91.1,71.0,28.53,SSE,157,4.0,4.0,53,0.00,,,0.00,Rainwise IP-100,2013-07-23 19:41:00,
2013-07-23 14:46:00,91.1,71.0,28.53,SSW,202,3.0,9.0,53,0.00,,,0.00,Rainwise IP-100,2013-07-23 19:46:00,
2013-07-23 14:51:00,91.5,71.0,28.53,South,180,7.0,7.0,52,0.00,,,0.00,Rainwise IP-100,2013-07-23 19:51:00,
2013-07-23 14:56:00,91.6,71.0,28.53,SSW,202,4.0,4.0,51,0.00,,,0.00,Rainwise IP-100,2013-07-23 19:56:00,
2013-07-23 15:01:00,91.7,71.0,28.53,SSE,157,9.0,0.0,51,0.00,,,0.00,Rainwise IP-100,2013-07-23 20:01:00,
2013-07-23 15:06:00,91.7,71.0,28.52,South,180,5.0,9.0,51,0.00,,,0.00,Rainwise IP-100,2013-07-23 20:06:00,
2013-07-23 15:11:00,91.7,70.0,28.52,SSW,202,4.0,4.0,50,0.00,,,0.00,Rainwise IP-100,2013-07-23 20:11:00,
2013-07-23 15:16:00,92.2,70.0,28.52,South,180,9.0,9.0,49,0.00,,,0.00,Rainwise IP-100,2013-07-23 20:16:00,
2013-07-23 15:21:00,92.4,70.0,28.52,SSE,157,7.0,7.0,49,0.00,,,0.00,Rainwise IP-100,2013-07-23 20:21:00,
2013-07-23 15:26:00,92.1,70.0,28.52,SSE,157,8.0,0.0,49,0.00,,,0.00,Rainwise IP-100,2013-07-23 20:26:00,
2013-07-23 15:31:00,92.3,69.0,28.52,South,180,5.0,5.0,48,0.00,,,0.00,Rainwise IP-100,2013-07-23 20:31:00,
2013-07-23 15:36:00,92.5,70.0,28.51,ESE,112,3.0,3.0,48,0.00,,,0.00,Rainwise IP-100,2013-07-23 20:36:00,
2013-07-23 15:41:00,92.7,69.0,28.51,SSE,157,5.0,5.0,47,0.00,,,0.00,Rainwise IP-100,2013-07-23 20:41:00,
2013-07-23 15:46:00,93.0,69.0,28.50,WNW,292,5.0,5.0,46,0.00,,,0.00,Rainwise IP-100,2013-07-23 20:46:00,
2013-07-23 15:51:00,93.2,69.0,28.50,SSE,157,4.0,0.0,45,0.00,,,0.00,Rainwise IP-100,2013-07-23 20:51:00,
2013-07-23 15:56:00,93.6,68.0,28.51,SSE,157,4.0,0.0,44,0.00,,,0.00,Rainwise IP-100,2013-07-23 20:56:00,
2013-07-23 16:01:00,93.7,68.0,28.50,SW,225,6.0,6.0,43,0.00,,,0.00,Rainwise IP-100,2013-07-23 21:01:00,
2013-07-23 16:06:00,93.6,67.0,28.50,SSW,202,5.0,5.0,43,0.00,,,0.00,Rainwise IP-100,2013-07-23 21:06:00,
2013-07-23 16:11:00,93.7,67.0,28.50,South,180,4.0,4.0,42,0.00,,,0.00,Rainwise IP-100,2013-07-23 21:11:00,
2013-07-23 16:16:00,93.7,67.0,28.49,SSW,202,2.0,4.0,42,0.00,,,0.00,Rainwise IP-100,2013-07-23 21:16:00,
2013-07-23 16:21:00,93.7,67.0,28.49,ESE,112,6.0,6.0,42,0.00,,,0.00,Rainwise IP-100,2013-07-23 21:21:00,
2013-07-23 16:26:00,93.6,67.0,28.49,SSE,157,5.0,5.0,42,0.00,,,0.00,Rainwise IP-100,2013-07-23 21:26:00,
2013-07-23 16:31:00,93.7,67.0,28.49,South,180,4.0,4.0,42,0.00,,,0.00,Rainwise IP-100,2013-07-23 21:31:00,
2013-07-23 16:36:00,94.3,66.0,28.49,SSE,157,8.0,8.0,41,0.00,,,0.00,Rainwise IP-100,2013-07-23 21:36:00,
2013-07-23 16:41:00,94.1,67.0,28.49,SSE,157,7.0,0.0,42,0.00,,,0.00,Rainwise IP-100,2013-07-23 21:41:00,
2013-07-23 16:46:00,94.1,66.0,28.49,SE,135,4.0,4.0,40,0.00,,,0.00,Rainwise IP-100,2013-07-23 21:46:00,
2013-07-23 16:51:00,94.1,66.0,28.48,South,180,5.0,0.0,40,0.00,,,0.00,Rainwise IP-100,2013-07-23 21:51:00,
2013-07-23 16:56:00,94.2,66.0,28.48,SW,225,6.0,9.0,40,0.00,,,0.00,Rainwise IP-100,2013-07-23 21:56:00,
2013-07-23 17:01:00,94.8,66.0,28.48,SSE,157,7.0,9.0,40,0.00,,,0.00,Rainwise IP-100,2013-07-23 22:01:00,
2013-07-23 17:06:00,94.8,66.0,28.48,SE,135,0.0,1.0,39,0.00,,,0.00,Rainwise IP-100,2013-07-23 22:06:00,
2013-07-23 17:11:00,94.4,66.0,28.48,SE,135,8.0,8.0,39,0.00,,,0.00,Rainwise IP-100,2013-07-23 22:11:00,
2013-07-23 17:16:00,94.4,66.0,28.48,South,180,0.0,1.0,39,0.00,,,0.00,Rainwise IP-100,2013-07-23 22:16:00,
2013-07-23 17:21:00,94.7,66.0,28.48,ESE,112,9.0,9.0,39,0.00,,,0.00,Rainwise IP-100,2013-07-23 22:21:00,
2013-07-23 17:26:00,94.9,66.0,28.48,South,180,7.0,0.0,39,0.00,,,0.00,Rainwise IP-100,2013-07-23 22:26:00,
2013-07-23 17:31:00,94.8,65.0,28.48,SE,135,7.0,7.0,38,0.00,,,0.00,Rainwise IP-100,2013-07-23 22:31:00,
2013-07-23 17:36:00,94.8,65.0,28.47,SSE,157,0.0,1.0,38,0.00,,,0.00,Rainwise IP-100,2013-07-23 22:36:00,
2013-07-23 17:41:00,94.9,65.0,28.47,SSE,157,8.0,8.0,38,0.00,,,0.00,Rainwise IP-100,2013-07-23 22:41:00,
2013-07-23 17:46:00,94.8,65.0,28.47,SSE,157,8.0,8.0,38,0.00,,,0.00,Rainwise IP-100,2013-07-23 22:46:00,
2013-07-23 17:51:00,94.9,65.0,28.47,ESE,112,7.0,9.0,38,0.00,,,0.00,Rainwise IP-100,2013-07-23 22:51:00,
2013-07-23 17:56:00,95.0,65.0,28.47,SSE,157,5.0,5.0,38,0.00,,,0.00,Rainwise IP-100,2013-07-23 22:56:00,
2013-07-23 18:01:00,94.9,64.0,28.46,SE,135,5.0,5.0,37,0.00,,,0.00,Rainwise IP-100,2013-07-23 23:01:00,
2013-07-23 18:06:00,94.7,65.0,28.46,SSE,157,7.0,7.0,38,0.00,,,0.00,Rainwise IP-100,2013-07-23 23:06:00,
2013-07-23 18:11:00,94.7,65.0,28.46,SSE,157,9.0,9.0,38,0.00,,,0.00,Rainwise IP-100,2013-07-23 23:11:00,
2013-07-23 18:16:00,94.9,64.0,28.46,SSE,157,8.0,8.0,37,0.00,,,0.00,Rainwise IP-100,2013-07-23 23:16:00,
2013-07-23 18:21:00,95.0,64.0,28.46,SSE,157,5.0,9.0,37,0.00,,,0.00,Rainwise IP-100,2013-07-23 23:21:00,
2013-07-23 18:26:00,95.1,64.0,28.46,SSE,157,6.0,6.0,37,0.00,,,0.00,Rainwise IP-100,2013-07-23 23:26:00,
2013-07-23 18:31:00,94.9,64.0,28.46,SE,135,6.0,6.0,36,0.00,,,0.00,Rainwise IP-100,2013-07-23 23:31:00,
2013-07-23 18:36:00,94.6,63.0,28.46,SSW,202,3.0,7.0,36,0.00,,,0.00,Rainwise IP-100,2013-07-23 23:36:00,
2013-07-23 18:41:00,94.7,63.0,28.46,SSW,202,4.0,4.0,36,0.00,,,0.00,Rainwise IP-100,2013-07-23 23:41:00,
2013-07-23 18:46:00,94.7,63.0,28.45,SSE,157,8.0,8.0,36,0.00,,,0.00,Rainwise IP-100,2013-07-23 23:46:00,
2013-07-23 18:51:00,94.7,64.0,28.45,South,180,3.0,0.0,37,0.00,,,0.00,Rainwise IP-100,2013-07-23 23:51:00,
2013-07-23 18:56:00,94.7,64.0,28.45,SSE,157,3.0,3.0,37,0.00,,,0.00,Rainwise IP-100,2013-07-23 23:56:00,
2013-07-23 19:01:00,94.7,64.0,28.46,ESE,112,5.0,7.0,37,0.00,,,0.00,Rainwise IP-100,2013-07-24 00:01:00,
2013-07-23 19:06:00,94.4,64.0,28.46,SE,135,6.0,9.0,37,0.00,,,0.00,Rainwise IP-100,2013-07-24 00:06:00,
2013-07-23 19:11:00,94.2,64.0,28.45,SSE,157,6.0,9.0,37,0.00,,,0.00,Rainwise IP-100,2013-07-24 00:11:00,
2013-07-23 19:16:00,93.9,64.0,28.45,South,180,7.0,7.0,37,0.00,,,0.00,Rainwise IP-100,2013-07-24 00:16:00,
2013-07-23 19:21:00,93.7,63.0,28.46,ESE,112,6.0,7.0,36,0.00,,,0.00,Rainwise IP-100,2013-07-24 00:21:00,
2013-07-23 19:26:00,93.7,63.0,28.45,South,180,5.0,8.0,36,0.00,,,0.00,Rainwise IP-100,2013-07-24 00:26:00,
2013-07-23 19:31:00,93.5,63.0,28.45,South,180,7.0,9.0,37,0.00,,,0.00,Rainwise IP-100,2013-07-24 00:31:00,
2013-07-23 19:36:00,93.3,62.0,28.45,South,180,6.0,7.0,36,0.00,,,0.00,Rainwise IP-100,2013-07-24 00:36:00,
2013-07-23 19:41:00,93.1,62.0,28.45,SE,135,7.0,7.0,36,0.00,,,0.00,Rainwise IP-100,2013-07-24 00:41:00,
2013-07-23 19:46:00,92.7,62.0,28.45,SSE,157,5.0,7.0,36,0.00,,,0.00,Rainwise IP-100,2013-07-24 00:46:00,
2013-07-23 19:51:00,92.5,61.0,28.45,SSE,157,5.0,9.0,36,0.00,,,0.00,Rainwise IP-100,2013-07-24 00:51:00,
2013-07-23 19:56:00,92.4,61.0,28.44,SSW,202,2.0,7.0,36,0.00,,,0.00,Rainwise IP-100,2013-07-24 00:56:00,
2013-07-23 20:01:00,92.1,61.0,28.44,SSE,157,2.0,5.0,36,0.00,,,0.00,Rainwise IP-100,2013-07-24 01:01:00,
2013-07-23 20:06:00,91.6,61.0,28.44,SSE,157,2.0,5.0,37,0.00,,,0.00,Rainwise IP-100,2013-07-24 01:06:00,
2013-07-23 20:11:00,91.3,61.0,28.44,SSE,157,5.0,6.0,37,0.00,,,0.00,Rainwise IP-100,2013-07-24 01:11:00,
2013-07-23 20:16:00,90.9,62.0,28.44,SE,135,5.0,8.0,38,0.00,,,0.00,Rainwise IP-100,2013-07-24 01:16:00,
2013-07-23 20:21:00,90.4,61.0,28.44,SSE,157,4.0,5.0,38,0.00,,,0.00,Rainwise IP-100,2013-07-24 01:21:00,
2013-07-23 20:26:00,90.0,61.0,28.44,SSE,157,4.0,6.0,39,0.00,,,0.00,Rainwise IP-100,2013-07-24 01:26:00,
2013-07-23 20:31:00,89.6,61.0,28.44,SSE,157,2.0,5.0,39,0.00,,,0.00,Rainwise IP-100,2013-07-24 01:31:00,
2013-07-23 20:36:00,89.1,61.0,28.43,SSE,157,2.0,5.0,40,0.00,,,0.00,Rainwise IP-100,2013-07-24 01:36:00,
2013-07-23 20:41:00,88.8,61.0,28.44,SSE,157,4.0,5.0,40,0.00,,,0.00,Rainwise IP-100,2013-07-24 01:41:00,
2013-07-23 20:46:00,88.4,62.0,28.43,SE,135,3.0,5.0,41,0.00,,,0.00,Rainwise IP-100,2013-07-24 01:46:00,
2013-07-23 20:51:00,87.9,62.0,28.43,SE,135,1.0,4.0,42,0.00,,,0.00,Rainwise IP-100,2013-07-24 01:51:00,
2013-07-23 20:56:00,87.4,62.0,28.43,SSE,157,0.0,2.0,43,0.00,,,0.00,Rainwise IP-100,2013-07-24 01:56:00,
2013-07-23 21:01:00,87.0,61.0,28.44,ESE,112,3.0,3.0,43,0.00,,,0.00,Rainwise IP-100,2013-07-24 02:01:00,
2013-07-23 21:06:00,86.5,62.0,28.44,SE,135,0.0,3.0,44,0.00,,,0.00,Rainwise IP-100,2013-07-24 02:06:00,
2013-07-23 21:11:00,86.1,62.0,28.44,SE,135,0.0,2.0,45,0.00,,,0.00,Rainwise IP-100,2013-07-24 02:11:00,
2013-07-23 21:16:00,85.8,62.0,28.44,SSE,157,2.0,4.0,46,0.00,,,0.00,Rainwise IP-100,2013-07-24 02:16:00,
2013-07-23 21:21:00,85.5,63.0,28.45,SSE,157,2.0,3.0,47,0.00,,,0.00,Rainwise IP-100,2013-07-24 02:21:00,
2013-07-23 21:26:00,85.3,62.0,28.45,SSE,157,2.0,3.0,47,0.00,,,0.00,Rainwise IP-100,2013-07-24 02:26:00,
2013-07-23 21:31:00,85.1,63.0,28.45,ESE,112,2.0,3.0,48,0.00,,,0.00,Rainwise IP-100,2013-07-24 02:31:00,
2013-07-23 21:36:00,85.0,63.0,28.45,ESE,112,2.0,4.0,48,0.00,,,0.00,Rainwise IP-100,2013-07-24 02:36:00,
2013-07-23 21:41:00,84.9,63.0,28.46,SE,135,2.0,4.0,49,0.00,,,0.00,Rainwise IP-100,2013-07-24 02:41:00,
2013-07-23 21:46:00,84.7,63.0,28.46,SSE,157,2.0,4.0,49,0.00,,,0.00,Rainwise IP-100,2013-07-24 02:46:00,
2013-07-23 21:51:00,84.5,63.0,28.46,SSE,157,3.0,3.0,49,0.00,,,0.00,Rainwise IP-100,2013-07-24 02:51:00,
2013-07-23 21:56:00,84.3,64.0,28.46,SSE,157,3.0,3.0,50,0.00,,,0.00,Rainwise IP-100,2013-07-24 02:56:00,
2013-07-23 22:01:00,84.0,63.0,28.46,South,180,3.0,4.0,50,0.00,,,0.00,Rainwise IP-100,2013-07-24 03:01:00,
2013-07-23 22:06:00,83.8,64.0,28.46,SE,135,2.0,5.0,51,0.00,,,0.00,Rainwise IP-100,2013-07-24 03:06:00,
2013-07-23 22:11:00,83.7,64.0,28.46,SSE,157,1.0,4.0,51,0.00,,,0.00,Rainwise IP-100,2013-07-24 03:11:00,
2013-07-23 22:16:00,83.7,64.0,28.47,SSE,157,2.0,4.0,52,0.00,,,0.00,Rainwise IP-100,2013-07-24 03:16:00,
2013-07-23 22:21:00,83.6,64.0,28.47,ESE,112,3.0,5.0,52,0.00,,,0.00,Rainwise IP-100,2013-07-24 03:21:00,
2013-07-23 22:26:00,83.5,64.0,28.47,SE,135,3.0,4.0,52,0.00,,,0.00,Rainwise IP-100,2013-07-24 03:26:00,
2013-07-23 22:31:00,83.4,64.0,28.47,SE,135,1.0,3.0,52,0.00,,,0.00,Rainwise IP-100,2013-07-24 03:31:00,
2013-07-23 22:36:00,83.2,64.0,28.47,SSE,157,1.0,4.0,52,0.00,,,0.00,Rainwise IP-100,2013-07-24 03:36:00,
2013-07-23 22:41:00,83.1,64.0,28.47,SSE,157,4.0,4.0,53,0.00,,,0.00,Rainwise IP-100,2013-07-24 03:41:00,
2013-07-23 22:46:00,82.8,64.0,28.47,ESE,112,3.0,4.0,53,0.00,,,0.00,Rainwise IP-100,2013-07-24 03:46:00,
2013-07-23 22:51:00,82.6,64.0,28.48,ESE,112,2.0,4.0,54,0.00,,,0.00,Rainwise IP-100,2013-07-24 03:51:00,
2013-07-23 22:56:00,82.5,64.0,28.48,ESE,112,2.0,5.0,54,0.00,,,0.00,Rainwise IP-100,2013-07-24 03:56:00,
2013-07-23 23:01:00,82.5,64.0,28.48,SSE,157,2.0,4.0,54,0.00,,,0.00,Rainwise IP-100,2013-07-24 04:01:00,
2013-07-23 23:06:00,82.4,64.0,28.48,SSE,157,3.0,4.0,54,0.00,,,0.00,Rainwise IP-100,2013-07-24 04:06:00,
2013-07-23 23:11:00,82.2,64.0,28.48,SSE,157,3.0,4.0,55,0.00,,,0.00,Rainwise IP-100,2013-07-24 04:11:00,
2013-07-23 23:16:00,82.0,64.0,28.48,SSE,157,3.0,4.0,55,0.00,,,0.00,Rainwise IP-100,2013-07-24 04:16:00,
2013-07-23 23:21:00,81.7,64.0,28.47,SSE,157,1.0,6.0,56,0.00,,,0.00,Rainwise IP-100,2013-07-24 04:21:00,
2013-07-23 23:26:00,81.6,64.0,28.48,SSE,157,3.0,4.0,56,0.00,,,0.00,Rainwise IP-100,2013-07-24 04:26:00,
2013-07-23 23:31:00,81.5,64.0,28.48,SSE,157,2.0,3.0,56,0.00,,,0.00,Rainwise IP-100,2013-07-24 04:31:00,
2013-07-23 23:36:00,81.3,65.0,28.48,SSE,157,0.0,3.0,57,0.00,,,0.00,Rainwise IP-100,2013-07-24 04:36:00,
2013-07-23 23:41:00,81.1,64.0,28.48,SSE,157,2.0,2.0,57,0.00,,,0.00,Rainwise IP-100,2013-07-24 04:41:00,
2013-07-23 23:46:00,80.9,64.0,28.48,SSE,157,3.0,4.0,57,0.00,,,0.00,Rainwise IP-100,2013-07-24 04:46:00,
2013-07-23 23:51:00,80.8,64.0,28.48,SE,135,1.0,3.0,58,0.00,,,0.00,Rainwise IP-100,2013-07-24 04:51:00,
2013-07-23 23:56:00,80.7,64.0,28.48,SSE,157,4.0,4.0,58,0.00,,,0.00,Rainwise IP-100,2013-07-24 04:56:00,